Location: Zagreb
(45.8000°N, 16.0000°E)
Time: 18:41:06
(UTC+02:00)

A-11 Canister half - Pass Details

Date: 15 August 2022
Orbit: 1524 x 1684 km, 47.3° (Epoch: 05 October)

Event Time Altitude Azimuth Distance (km) Brightness Sun altitude
Rises 03:05:52 0° 182° (S) 4,858 - -23.8°
Reaches altitude 10° 03:10:13 10° 165° (SSE) 3,898 - -23.3°
Exits shadow 03:10:55 12° 162° (SSE) 3,773 10.7 -23.3°
Maximum altitude 03:16:33 19° 125° (SE) 3,262 10.7 -22.7°
Drops below altitude 10° 03:22:54 10° 86° (E) 3,949 11.7 -22.0°
Sets 03:27:18 0° 70° (ENE) 4,942 12.6 -21.6°
